Back to catalog

CZ-6A DEB

AlivePO
NORAD 56665·DEBRIS·🇨🇳 China

Launched Nov 11, 2022 from Taiyuan Satellite Launch Center

Loading…

Next Passes (next 24 hours)

TLE

FreshSource: Space-Track

Epoch: Sep 13, 2026, 04:43 UTC

1 56665U 22151AGR 26256.19677701  .00001544  00000-0  30038-3 0  9999
2 56665  98.6984 346.6050 0121659 347.5456  12.2743 14.60139202185142

Track CZ-6A DEB in real time with AllMySat

Download on the App Store